Location: Wiesbaden
(50.0830°N, 8.2500°E)
Time: 07:06:34
(UTC+02:00)

ISS - Pass Details

Date: 24 May 2019
Orbit: 408 x 418 km, 51.6° (Epoch: 27 May)

Event Time Altitude Azimuth Distance (km) Brightness Sun altitude
Rises 22:36:46 0° 268° (W) 2,350 0.6 -10.0°
Reaches altitude 10° 22:38:52 10° 271° (W) 1,490 -0.4 -10.3°
Maximum altitude 22:42:12 66° 355° (N) 458 -3.4 -10.6°
Drops below altitude 10° 22:45:33 10° 79° (ENE) 1,496 -1.2 -10.9°
Enters shadow 22:47:29 - 82° (E) 2,289 -0.3 -11.1°
